• Processing (Info)

  • MPEC 2010-G57 : 2010 FX86

    The following Minor Planet Electronic Circular may be linked-to from your own Web pages, but must not otherwise be redistributed electronically.

    A form allowing access to any MPEC is at the bottom of this page.


    Read MPEC 2010-G56 Read MPEC 2010-G58


    M.P.E.C. 2010-G57                                Issued 2010 Apr.  9, 14:43 UT
    
         The Minor Planet Electronic Circulars contain information on unusual
             minor planets and routine data on comets.  They are published
       on behalf of Commission 20 of the International Astronomical Union by the
              Minor Planet Center, Smithsonian Astrophysical Observatory,
                              Cambridge, MA 02138, U.S.A.
    
                 Prepared using the Tamkin Foundation Computer Network
    
                                  MPC@CFA.HARVARD.EDU
           URL http://www.minorplanetcenter.org/iau/mpc.html  ISSN 1523-6714
    
                                       2010 FX86
    
    Observations:
         K10F86X* C2010 03 17.12081 13 38 09.247-37 43 04.88         20.8 R EG057304
         K10F86X  C2010 03 17.16759 13 38 09.067-37 43 04.90         20.7 R EG057304
         K10F86X  C2010 03 17.21437 13 38 08.848-37 43 04.92                EG057304
         K10F86X  C2010 04 04.10104 13 36 43.495-37 41 39.69                EG057304
         K10F86X  C2010 04 04.15195 13 36 43.211-37 41 39.18         20.9 R EG057304
         K10F86X  C2010 04 04.20805 13 36 42.923-37 41 38.33         20.6 R EG057304
         K10F86X  C2010 04 08.44237 13 36 21.09 -37 40 43.4          20.6 R EG057467
         K10F86X  C2010 04 08.47719 13 36 21.01 -37 40 43.3          20.6 R EG057467
    
    Observer details:
    304 Las Campanas Observatory.  Observers S. S. Sheppard, A. Udalski,
        I. Soszynski, C. Trujillo.  Warsaw 1.3-m reflector + CCD.
    467 Auckland Observatory.  Observers G. W. Christie, T. Natusch.  Measurer
        G. W. Christie.  0.40-m f/10 Schmidt-Cassegrain + CCD.
    
    Orbital elements:
    2010 FX86
    Epoch 2010 Mar. 25.0 TT = JDT 2455280.5                 MPC
    M 183.23124              (2000.0)            P               Q
    n   0.00337555     Peri.   81.18835     +0.75927931     -0.57070595
    a  44.0122138      Node   312.86565     +0.28710394     +0.72500686
    e   0.0644365      Incl.   25.25514     +0.58400878     +0.38556422
    P 292              H    4.3           G   0.15
    From 8 observations 2010 Mar. 17-Apr. 8.  E-assumed.
    
    Ephemeris:
    2010 FX86                a,e,i = 44.01, 0.06, 25                 q = 41.176
    Date    TT    R. A. (2000) Decl.     Delta      r     Elong.  Phase     V
    2010 04 04    13 36.73   -37 41.7   46.010   46.844   146.2     0.7    21.1
    2010 04 14    13 35.87   -37 39.2   45.960   46.844   151.5     0.6    21.1
    2010 04 24    13 35.01   -37 35.7   45.937   46.844   154.2     0.5    21.1
    2010 05 04    13 34.17   -37 31.3   45.940   46.844   153.5     0.6    21.1
    2010 05 14    13 33.38   -37 26.0   45.969   46.844   149.6     0.6    21.1
    2010 05 24    13 32.67   -37 20.3   46.024   46.844   143.6     0.7    21.1
    2010 06 03    13 32.08   -37 14.1   46.103   46.844   136.5     0.9    21.1
    2010 06 13    13 31.60   -37 07.8   46.202   46.844   128.7     1.0    21.1
    2010 06 23    13 31.27   -37 01.6   46.320   46.843   120.4     1.1    21.1
    2010 07 03    13 31.09   -36 55.6   46.453   46.843   112.0     1.2    21.2
    2010 07 13    13 31.08   -36 50.2   46.596   46.843   103.5     1.2    21.2
    2010 07 23    13 31.22   -36 45.3   46.746   46.843    94.9     1.2    21.2
    2010 08 02    13 31.53   -36 41.3   46.898   46.843    86.3     1.2    21.2
    2010 08 12    13 31.99   -36 38.2   47.049   46.843    77.6     1.2    21.2
    2010 08 22    13 32.59   -36 36.1   47.194   46.843    69.1     1.2    21.2
    2010 09 01    13 33.33   -36 35.1   47.329   46.843    60.7     1.1    21.2
    2010 09 11    13 34.18   -36 35.2   47.450   46.843    52.4     1.0    21.2
    2010 09 21    13 35.12   -36 36.5   47.553   46.843    44.5     0.9    21.2
    2010 10 01    13 36.14   -36 38.9   47.637   46.842    37.1     0.7    21.2
    2010 10 11    13 37.20   -36 42.4   47.697   46.842    30.8     0.6    21.2
    
    Brian G. Marsden             (C) Copyright 2010 MPC           M.P.E.C. 2010-G57
    

    Read MPEC 2010-G56 Read MPEC 2010-G58


    MPEC number:

    Enter an MPEC number in one of the following forms:

    • 1997-B01 (the full form)
    • J97B01 (the packed version of the full form)
    • B01 (the abbreviated form)